Location: Abraham Lincoln Continuation High School
(33.9711°N, 117.3662°W)
Time: 04:53:16
(UTC+00:00)

SL-08 RB Rocket - Pass Details

Date: 21 September 2020
Orbit: 646 x 684 km, 97.8° (Epoch: 25 October)

Event Time Altitude Azimuth Distance (km) Brightness Sun altitude
Exits shadow 03:08:59 30° 126° (SE) 1,195 4.5 -17.5°
Maximum altitude 03:10:47 46° 74° (ENE) 905 4.0 -17.8°
Drops below altitude 10° 03:15:09 10° 2° (N) 2,093 6.4 -18.7°
Sets 03:17:26 0° 356° (N) 3,003 7.3 -19.2°
